San Carlos, CA

1:50 AM PDT on April 27, 2018 (GMT -0700)
San Carlos

Weather History for KSQL - April, 2013

Change the Weather History Date:

Tuesday, April 2, 2013

  Actual Average Record
Temperature  
Mean Temperature 57 °F -  
Max Temperature 66 °F 69 °F 88 °F (1961)
Min Temperature 48 °F 44 °F 33 °F (1976)
Degree Days  
Heating Degree Days 8    
Growing Degree Days 7 (Base 50)    
Moisture  
Dew Point 48 °F    
Average Humidity 81    
Maximum Humidity 93    
Minimum Humidity 60    
Precipitation  
Precipitation 0.00 in - - ()
Sea Level Pressure  
Sea Level Pressure 30.17 in    
Wind  
Wind Speed 2 mph (NNW)    
Max Wind Speed 10 mph    
Max Gust Speed -    
Visibility 10 miles    
Events      
Averages and records for this station are not official NWS values.
T = Trace of Precipitation, MM = Missing Value Source: NWS Daily Summary

Daily Weather History Graph

Daily Weather History Graph

Search for Another Location

Airport or City:

Astronomy

Apr. 02, 2013 Rise Set
Actual Time 6:52 AM PDT 7:32 PM PDT
Civil Twilight 6:26 AM PDT 7:59 PM PDT
Nautical Twilight 5:54 AM PDT 8:30 PM PDT
Astronomical Twilight 5:23 AM PDT 9:02 PM PDT
Moon 1:37 AM PDT (4/2) 11:54 AM PDT (4/2)
Length of Visible Light 13h 33m
Length of Day
12h 40m
Waning Gibbous, 55% of the Moon is Illuminated
Apr 2
Waning Gibbous
Apr 2
Last Quarter
Apr 10
New
Apr 18
First Quarter
Apr 25
Full

Hourly Weather History & Observations

Time (PDT) Temp. Dew Point Humidity Pressure Visibility Wind Dir Wind Speed Gust Speed Precip Events Conditions
12:10 AM 53.6 °F 46.4 °F 77% 30.17 in 10.0 mi Calm Calm - N/A   Clear
12:30 AM 53.6 °F 46.4 °F 77% 30.18 in 10.0 mi Calm Calm - N/A   Clear
12:55 AM 51.8 °F 46.4 °F 82% 30.18 in 10.0 mi Calm Calm - N/A   Partly Cloudy
1:10 AM 51.8 °F 46.4 °F 82% 30.18 in 10.0 mi Calm Calm - N/A   Partly Cloudy
1:30 AM 51.8 °F 46.4 °F 82% 30.19 in 10.0 mi Calm Calm - N/A   Clear
1:55 AM 51.8 °F 46.4 °F 82% 30.19 in 10.0 mi Calm Calm - N/A   Clear
2:10 AM 50.0 °F 46.4 °F 87% 30.20 in 10.0 mi Calm Calm - N/A   Clear
2:30 AM 50.0 °F 46.4 °F 87% 30.19 in 10.0 mi Calm Calm - N/A   Clear
2:55 AM 50.0 °F 46.4 °F 87% 30.19 in 10.0 mi Calm Calm - N/A   Clear
3:10 AM 50.0 °F 46.4 °F 87% 30.18 in 10.0 mi Calm Calm - N/A   Clear
3:30 AM 50.0 °F 46.4 °F 87% 30.18 in 10.0 mi Calm Calm - N/A   Clear
3:55 AM 50.0 °F 46.4 °F 87% 30.18 in 10.0 mi Calm Calm - N/A   Clear
4:15 AM 50.0 °F 46.4 °F 87% 30.18 in 10.0 mi Calm Calm - N/A   Clear
4:30 AM 50.0 °F 46.4 °F 87% 30.18 in 10.0 mi Calm Calm - N/A   Clear
4:55 AM 50.0 °F 46.4 °F 87% 30.18 in 10.0 mi Calm Calm - N/A   Clear
5:15 AM 50.0 °F 46.4 °F 87% 30.18 in 10.0 mi Calm Calm - N/A   Clear
5:30 AM 50.0 °F 46.4 °F 87% 30.18 in 10.0 mi Calm Calm - N/A   Clear
5:55 AM 50.0 °F 46.4 °F 87% 30.18 in 10.0 mi Calm Calm - N/A   Clear
6:15 AM 48.2 °F 46.4 °F 93% 30.19 in 10.0 mi North - - N/A   Clear
6:30 AM 48.2 °F 46.4 °F 93% 30.19 in 10.0 mi Calm Calm - N/A   Clear
6:52 AM 48.2 °F 46.4 °F 93% 30.19 in 10.0 mi Calm Calm - N/A   Mostly Cloudy
6:55 AM 48.2 °F 46.4 °F 93% 30.19 in 10.0 mi Calm Calm - N/A   Clear
7:49 AM 51.8 °F 46.4 °F 82% 30.19 in 10.0 mi Calm Calm - N/A   Mostly Cloudy
8:52 AM 53.6 °F 48.2 °F 82% 30.20 in 10.0 mi Calm Calm - N/A   Mostly Cloudy
9:52 AM 55.4 °F 48.2 °F 77% 30.19 in 10.0 mi ENE 4.6 mph - N/A   Mostly Cloudy
10:53 AM 57.2 °F 48.2 °F 72% 30.19 in 10.0 mi NNE 3.5 mph - N/A   Mostly Cloudy
11:47 AM 60.8 °F 51.8 °F 72% 30.20 in 10.0 mi North 9.2 mph - N/A   Mostly Cloudy
12:47 PM 62.6 °F 51.8 °F 68% 30.18 in 10.0 mi North 8.1 mph - N/A   Mostly Cloudy
1:55 PM 62.6 °F 50.0 °F 63% 30.15 in 10.0 mi North 10.4 mph - N/A   Mostly Cloudy
2:55 PM 66.2 °F 51.8 °F 60% 30.14 in 10.0 mi NW 10.4 mph - N/A   Mostly Cloudy
3:50 PM 66.2 °F 51.8 °F 60% 30.13 in 10.0 mi NNW 10.4 mph - N/A   Mostly Cloudy
4:50 PM 66.2 °F 51.8 °F 60% 30.11 in 10.0 mi NW 8.1 mph - N/A   Mostly Cloudy
5:55 PM 64.4 °F 51.8 °F 64% 30.11 in 10.0 mi WNW 9.2 mph - N/A   Partly Cloudy
6:47 PM 62.6 °F 51.8 °F 68% 30.10 in 10.0 mi West 8.1 mph - N/A   Scattered Clouds
8:47 PM 57.2 °F 48.2 °F 72% - 10.0 mi NNW 5.8 mph - N/A   Clear
9:15 PM 55.4 °F 48.2 °F 77% 30.14 in 10.0 mi NW 6.9 mph - N/A   Clear
9:30 PM 55.4 °F 48.2 °F 77% 30.15 in 10.0 mi NW 8.1 mph - N/A   Clear
9:55 PM 53.6 °F 48.2 °F 82% 30.16 in 10.0 mi NW 10.4 mph - N/A   Clear
10:15 PM 53.6 °F 48.2 °F 82% 30.16 in 10.0 mi NW 9.2 mph - N/A   Clear
10:30 PM 51.8 °F 48.2 °F 88% 30.17 in 10.0 mi NW 6.9 mph - N/A   Clear
10:55 PM 51.8 °F 48.2 °F 88% 30.17 in 10.0 mi NW 6.9 mph - N/A   Clear
11:15 PM 51.8 °F 46.4 °F 82% 30.17 in 10.0 mi NW 8.1 mph - N/A   Clear
11:30 PM 50.0 °F 46.4 °F 87% 30.17 in 10.0 mi NW 5.8 mph - N/A   Mostly Cloudy
11:55 PM 51.8 °F 46.4 °F 82% 30.16 in 10.0 mi NW 6.9 mph - N/A   Overcast